Cartersville, GA

6:12 PM EDT on September 20, 2017 (GMT -0400)
Cartersville

Weather History for KVPC - November, 2011

Change the Weather History Date:

Wednesday, November 23, 2011

  Actual Average Record
Temperature  
Mean Temperature 52 °F 49 °F  
Max Temperature 61 °F 61 °F 73 °F (2003)
Min Temperature 42 °F 37 °F 26 °F (2008)
Degree Days  
Heating Degree Days 13 16  
Month to date heating degree days 294  
Since 1 July heating degree days 486  
Growing Degree Days 2 (Base 50)    
Moisture  
Dew Point 48 °F    
Average Humidity 79    
Maximum Humidity 96    
Minimum Humidity 63    
Precipitation  
Precipitation 0.00 in 0.16 in 1.88 in (1989)
Month to date precipitation 2.94  
Year to date precipitation 44.55  
Snow  
Snow 0.00 in - - ()
Month to date snowfall  
Since 1 July snowfall  
Since 1 September snowfall  
Snow Depth -    
Sea Level Pressure  
Sea Level Pressure 30.10 in    
Wind  
Wind Speed 2 mph (NNW)    
Max Wind Speed 12 mph    
Max Gust Speed 21 mph    
Visibility 10 miles    
Events      
T = Trace of Precipitation, MM = Missing Value Source: NWS Daily Summary

Daily Weather History Graph

Daily Weather History Graph

Search for Another Location

Airport or City:

Trip Planner

Search our weather history database for the weather conditions in past years. The results will help you decide how hot, cold, wet, or windy it might be!

Date:

Astronomy

Nov. 23, 2011 Rise Set
Actual Time 7:19 AM EST 5:31 PM EST
Civil Twilight 6:52 AM EST 5:58 PM EST
Nautical Twilight 6:21 AM EST 6:29 PM EST
Astronomical Twilight 5:51 AM EST 6:59 PM EST
Moon 5:24 AM EST (11/23) 4:11 PM EST (11/23)
Length of Visible Light 11h 06m
Length of Day
10h 12m
Waning Crescent, 4% of the Moon is Illuminated
Nov 23
Waning Crescent
Nov 25
New
Dec 2
First Quarter
Dec 10
Full
Dec 17
Last Quarter

Hourly Weather History & Observations

Time (EST) Temp. Windchill Dew Point Humidity Pressure Visibility Wind Dir Wind Speed Gust Speed Precip Events Conditions
12:53 AM 61.0 °F - 59.0 °F 93% 29.96 in 10.0 mi Calm Calm - N/A   Overcast
1:39 AM 60.8 °F - 59.0 °F 94% 29.98 in 10.0 mi Calm Calm - N/A   Overcast
1:53 AM 60.1 °F - 59.0 °F 96% 29.96 in 10.0 mi Calm Calm - N/A   Overcast
2:15 AM 60.8 °F - 57.2 °F 88% 29.98 in 10.0 mi Calm Calm - N/A   Mostly Cloudy
2:53 AM 59.0 °F - 57.9 °F 96% 29.94 in 10.0 mi Calm Calm - N/A   Scattered Clouds
3:53 AM 60.1 °F - 57.9 °F 93% 29.94 in 10.0 mi Calm Calm - N/A   Overcast
4:46 AM 59.0 °F - 57.2 °F 94% 29.98 in 10.0 mi Variable 3.5 mph - 0.00 in   Mostly Cloudy
4:53 AM 59.0 °F - 55.9 °F 90% 29.96 in 10.0 mi Calm Calm - 0.00 in   Mostly Cloudy
6:53 AM 57.0 °F - 53.1 °F 87% 30.01 in 10.0 mi Calm Calm - 0.00 in   Overcast
7:42 AM 55.4 °F - 50.0 °F 82% 30.05 in 10.0 mi Calm Calm - N/A   Overcast
7:53 AM 55.9 °F - 51.1 °F 84% 30.04 in 10.0 mi Calm Calm - N/A   Overcast
8:53 AM 55.9 °F - 48.0 °F 75% 30.08 in 10.0 mi North 5.8 mph - N/A   Overcast
9:53 AM 55.9 °F - 46.9 °F 72% 30.11 in 10.0 mi Variable 6.9 mph - N/A   Overcast
10:53 AM 55.0 °F - 45.0 °F 69% 30.13 in 10.0 mi NNW 4.6 mph 20.7 mph N/A   Overcast
11:53 AM 53.1 °F - 44.1 °F 71% 30.14 in 10.0 mi Variable 5.8 mph - N/A   Overcast
12:53 PM 54.0 °F - 43.0 °F 66% 30.13 in 10.0 mi NW 9.2 mph 18.4 mph N/A   Overcast
1:25 PM 55.4 °F - 42.8 °F 63% 30.15 in 10.0 mi Variable 6.9 mph 17.3 mph N/A   Overcast
1:53 PM 55.0 °F - 43.0 °F 64% 30.13 in 10.0 mi North 11.5 mph 19.6 mph N/A   Overcast
2:22 PM 53.6 °F - 42.8 °F 67% 30.15 in 10.0 mi NNW 8.1 mph 19.6 mph N/A   Overcast
2:32 PM 53.6 °F - 42.8 °F 67% 30.15 in 10.0 mi North 9.2 mph - N/A   Overcast
3:53 PM 54.0 °F - 42.1 °F 64% 30.15 in 10.0 mi NNW 11.5 mph 19.6 mph N/A   Overcast
4:53 PM 54.0 °F - 42.1 °F 64% 30.16 in 10.0 mi NNW 8.1 mph - N/A   Overcast
5:53 PM 52.0 °F - 43.0 °F 71% 30.17 in 10.0 mi NW 4.6 mph - N/A   Mostly Cloudy
6:53 PM 50.0 °F - 42.1 °F 74% 30.19 in 10.0 mi Variable 3.5 mph - N/A   Clear
7:53 PM 48.0 °F - 42.1 °F 80% 30.21 in 10.0 mi Calm Calm - N/A   Clear
8:53 PM 48.9 °F - 41.0 °F 74% 30.22 in 10.0 mi Variable 4.6 mph - N/A   Clear
9:53 PM 46.0 °F - 41.0 °F 83% 30.24 in 10.0 mi Calm Calm - N/A   Clear
10:53 PM 43.0 °F 41.3 °F 39.9 °F 89% 30.25 in 8.0 mi South 3.5 mph - N/A   Clear
11:53 PM 42.1 °F - 39.9 °F 92% 30.26 in 10.0 mi Calm Calm - N/A   Clear